This is the latest recevied weather packets stored in our database for station/object KW4UJ. If no packets are shown the sender has not sent any weather packets the latest 10 day(s).
| Time | Temp. | Humidity | Pressure | Rain* | Wind** | Luminosity | Snow |
|---|---|---|---|---|---|---|---|
| 1777915933 | 23.89° C | 34% | 1012.3 hPa | 0 mm | - | 693 W/m² | - |
| 1777915630 | 23.89° C | 34% | 1012.1 hPa | 0 mm | - | 684 W/m² | - |
| 1777915326 | 23.33° C | 35% | 1012.2 hPa | 0 mm | - | 687 W/m² | - |
| 1777915023 | 23.33° C | 35% | 1012.5 hPa | 0 mm | - | 685 W/m² | - |
| 1777914720 | 22.78° C | 34% | 1012.5 hPa | 0 mm | - | 683 W/m² | - |
| 1777914416 | 22.78° C | 35% | 1012.5 hPa | 0 mm | - | 683 W/m² | - |
| 1777914114 | 22.78° C | 34% | 1012.7 hPa | 0 mm | - | 685 W/m² | - |
| 1777913810 | 22.78° C | 34% | 1013 hPa | 0 mm | - | 681 W/m² | - |
| 1777913506 | 23.33° C | 35% | 1012.6 hPa | 0 mm | - | 679 W/m² | - |
| 1777913203 | 22.78° C | 35% | 1012.6 hPa | 0 mm | - | 677 W/m² | - |
| 1777912899 | 22.22° C | 36% | 1012.9 hPa | 0 mm | - | 672 W/m² | - |
| 1777912596 | 22.22° C | 37% | 1013 hPa | 0 mm | - | 669 W/m² | - |
| 1777912292 | 22.22° C | 36% | 1013 hPa | 0 mm | - | 665 W/m² | - |
| 1777911988 | 22.22° C | 36% | 1012.9 hPa | 0 mm | - | 661 W/m² | - |
| 1777911684 | 21.11° C | 36% | 1012.9 hPa | 0 mm | - | 656 W/m² | - |
| 1777911381 | 21.11° C | 36% | 1013 hPa | 0 mm | - | 331 W/m² | - |
| 1777911079 | 21.67° C | 38% | 1013 hPa | 0 mm | - | 121 W/m² | - |
| 1777910776 | 21.67° C | 36% | 1013.1 hPa | 0 mm | - | 74 W/m² | - |
| 1777910472 | 21.67° C | 38% | 1013.4 hPa | 0 mm | - | 83 W/m² | - |
| 1777910169 | 21.11° C | 35% | 1013.5 hPa | 0 mm | - | 161 W/m² | - |
| 1777909866 | 21.11° C | 36% | 1013.3 hPa | 0 mm | - | 75 W/m² | - |
| 1777909563 | 21.11° C | 36% | 1013.4 hPa | 0 mm | - | 249 W/m² | - |
| 1777909260 | 21.11° C | 39% | 1013.5 hPa | 0 mm | - | 367 W/m² | - |
| 1777908958 | 21.11° C | 36% | 1013.7 hPa | 0 mm | - | 308 W/m² | - |
| 1777908656 | 21.11° C | 35% | 1013.6 hPa | 0 mm | - | 580 W/m² | - |
* Rain latest hour (hover to see other rain measurements)
** Current wind speed in m/s (hover to see current wind gust speed)